AO-07 1 07530U 74089B 26151.05620411 -.00000032 00000-0 90187-4 0 9992 2 07530 101.9903 164.1241 0012397 162.1931 213.8979 12.53697837358370 UO-11 1 14781U 84021B 26150.90410257 .00001530 00000-0 16143-3 0 9995 2 14781 97.8048 116.6736 0006235 234.7016 125.3619 14.90736546254551 AO-27 1 22825U 93061C 26151.14819103 .00000143 00000-0 71245-4 0 9991 2 22825 98.6884 218.5672 0009080 144.5024 215.6764 14.30937162704561 FO-29 1 24278U 96046B 26151.01021178 -.00000016 00000-0 16725-4 0 9996 2 24278 98.5255 2.2342 0350519 140.8980 221.8063 13.53273521470842 GO-32 1 25397U 98043D 26150.92507885 .00000075 00000-0 52507-4 0 9993 2 25397 99.0064 143.2489 0000217 259.0930 101.0223 14.24424695448876 ISS 1 25544U 98067A 26151.16242250 .00012606 00000-0 23226-3 0 9990 2 25544 51.6337 24.3812 0007232 116.8819 243.2910 15.49515140569113 NO-44 1 26931U 01043C 26150.83762067 .00000170 00000-0 94367-4 0 9993 2 26931 67.0511 289.1447 0006135 264.0006 96.0397 14.31948970287963 SO-50 1 27607U 02058C 26151.16213644 .00001361 00000-0 17722-3 0 9992 2 27607 64.5508 181.6592 0075553 265.5834 93.6637 14.83007588261931 CO-55 1 27844U 03031E 26150.96684404 .00000361 00000-0 17519-3 0 9993 2 27844 98.6737 159.7425 0008531 230.9226 129.1194 14.24324114189226 RS-22 1 27939U 03042A 26151.23379756 .00001433 00000-0 22909-3 0 9992 2 27939 98.3463 335.1145 0010586 328.7469 86.0405 14.73435137213058 CO-65 1 32785U 08021C 26151.14483698 .00007706 00000-0 48718-3 0 9995 2 32785 97.8269 132.2122 0010823 88.0948 272.1520 15.09275046982627 CO-66 1 32791U 08021J 26150.96247742 .00022458 00000-0 72582-3 0 9996 2 32791 97.7510 148.0466 0003508 48.1171 312.0368 15.32101389984658 RS-30 1 32953U 08025A 26151.19807278 .00000030 00000-0 14250-3 0 9992 2 32953 82.5056 6.0104 0019578 351.6637 8.4115 12.43178582817581 SRMSAT 1 37841U 11058D 26151.18608431 .00000418 00000-0 83177-4 0 9997 2 37841 19.9701 162.3745 0011828 18.0577 52.0290 14.11571814755411 ZACUBE-1 1 39417U 13066B 26150.87627542 .00005765 00000-0 44830-3 0 9990 2 39417 97.8106 113.1193 0039999 309.1134 50.6535 15.01053962678137 Delfi-N3xt 1 39428U 13066N 26150.84262911 .00007929 00000-0 69486-3 0 9992 2 39428 97.8346 71.1722 0073075 264.4618 94.8265 14.94880180672033 GOMX-1 1 39430U 13066Q 26151.09403494 .00003270 00000-0 49320-3 0 9996 2 39430 97.6492 352.6363 0129818 131.9134 229.3230 14.69387472667402 LO-74 1 39440U 13066AA 26150.84690825 .00005204 00000-0 48184-3 0 9991 2 39440 97.8898 99.7552 0059314 85.0571 275.7416 14.93605945674405 AO-73 1 39444U 13066AE 26150.88638683 .00008594 00000-0 53648-3 0 9999 2 39444 97.8260 121.9749 0034564 262.2658 97.4645 15.09250694677055 DTUSAT-2 1 40030U 14033W 26150.93226317 .00009495 00000-0 51532-3 0 9991 2 40030 98.0857 147.5674 0006266 299.9371 60.1236 15.14771368650079 LILACSAT-2 1 40908U 15049K 26151.17705458 .00021926 00000-0 38085-3 0 9999 2 40908 97.4660 187.3779 0005612 327.2477 32.8426 15.50835390593116 Horyu-4 1 41340U 16012D 26151.17558663 .00314769 00000-0 12505-2 0 9993 2 41340 30.9852 202.8762 0002431 164.3993 195.6741 15.84759557568102 Lapan A3 1 41603U 16040E 26151.22047760 .00004429 00000-0 14106-3 0 9992 2 41603 97.1480 147.9257 0012195 79.0716 281.1899 15.32988113552212 CAS-2T 1 41847U 16066G 26151.20192091 .00002053 00000-0 29589-3 0 9998 2 41847 98.3824 227.1314 0342034 180.9160 179.1448 14.44635251502344 TechnoSat 1 42829U 17042E 26150.96150295 .00004208 00000-0 30085-3 0 9993 2 42829 97.4269 309.2790 0018797 147.7768 212.4611 15.04845286484114 AO-91 1 43017U 17073E 26150.61112050 .00012250 00000-0 53366-3 0 9999 2 43017 97.4731 18.1891 0152418 29.9783 331.0066 15.12376389462731 S-Net D 1 43186U 18014G 26151.17533021 .00007202 00000-0 37267-3 0 9992 2 43186 97.5381 56.0736 0010087 80.3863 279.8509 15.16495547456189 S-Net B 1 43187U 18014H 26151.18645181 .00007298 00000-0 37782-3 0 9992 2 43187 97.5389 56.0706 0010700 76.1984 284.0438 15.16466770456189 S-Net A 1 43188U 18014J 26151.17429714 .00007329 00000-0 37904-3 0 9995 2 43188 97.5398 56.2643 0010578 76.9000 283.3412 15.16503072456183 S-Net C 1 43189U 18014K 26151.19024022 .00007427 00000-0 38442-3 0 9998 2 43189 97.5417 56.3520 0011887 70.3521 289.8994 15.16458616454739 Ten-Koh 1 43677U 18084G 26151.07945332 .00003760 00000-0 28521-3 0 9993 2 43677 98.0763 342.7212 0009792 171.4230 188.7163 15.02855481413593 PO-101 1 43678U 18084H 26151.16401964 .00002670 00000-0 21767-3 0 9996 2 43678 98.1144 346.6368 0011766 227.2188 132.8046 15.00362000413665 QO-100 1 43700U 18090A 26151.14992332 .00000157 00000-0 00000 0 0 9992 2 43700 0.0184 321.4927 0001809 133.2486 233.6778 1.00270769 27504 MinXSS-2 1 43758U 18099A 26151.20196156 .00050654 00000-0 10453-2 0 9994 2 43758 97.4545 227.0039 0006132 330.3440 29.7460 15.45689938411502 AO-95 1 43770U 18099N 26151.10014402 .00015337 00000-0 59239-3 0 9995 2 43770 97.4394 211.4133 0009722 56.5190 303.6976 15.26307587410610 SNUSat 2 1 43782U 18099AA 26151.10480303 .00010977 00000-0 48919-3 0 9993 2 43782 97.4068 204.7533 0010006 5.3018 354.8322 15.21553310410433 SnugLite 1 43784U 18099AC 26151.10572358 .00015360 00000-0 58582-3 0 9995 2 43784 97.3881 205.5575 0002662 24.8280 335.3087 15.26767688410711 ITASat 1 1 43786U 18099AE 26151.09124675 .00009676 00000-0 46674-3 0 9992 2 43786 97.4038 202.9458 0013796 57.5847 302.6720 15.18815267410316 EAGLET 1 1 43790U 18099AJ 26151.12064420 .00005083 00000-0 29267-3 0 9999 2 43790 97.4239 201.2419 0012337 51.4294 308.8041 15.12796074409750 ESEO 1 43792U 18099AL 26151.08426605 .00001609 00000-0 11990-3 0 9997 2 43792 97.3978 189.2056 0013214 39.6228 320.5962 15.04189221409230 JO-97 1 43803U 18099AX 26151.12872067 .00022124 00000-0 69380-3 0 9993 2 43803 97.4138 213.9101 0004591 345.1738 14.9369 15.33059912411016 Suomi 100 1 43804U 18099AY 26151.11656875 .00016552 00000-0 60740-3 0 9999 2 43804 97.4198 211.5771 0009175 349.1678 10.9363 15.27992352410814 ISAT 1 43879U 18111D 26150.75644170 .00092022 00000-0 10429-2 0 9994 2 43879 97.5900 84.6790 0004652 52.4075 307.7604 15.62079127408444 UWE-4 1 43880U 18111E 26150.34581630 .00045687 00000-0 96821-3 0 9998 2 43880 97.5862 77.9309 0008920 44.6920 315.5045 15.44911436408026 Sparrow 1 43881U 18111F 26150.81634841 .00140391 00000-0 11789-2 0 9991 2 43881 97.6133 90.0735 0005799 92.2567 267.9359 15.69454102408640 Prox-1 1 44339U 19036A 26150.58289545 .00015753 00000-0 15578-2 0 9991 2 44339 23.9947 231.8121 0005910 182.1526 177.8948 14.90153476370843 Taurus 1 1 44530U 19059C 26151.18109285 .00007210 00000-0 11589-2 0 9995 2 44530 98.6398 314.9577 0008303 14.1430 346.0006 14.71891830356144 TO-108 1 44881U 19093C 26151.14911266 .00001264 00000-0 14874-3 0 9992 2 44881 97.7537 223.7962 0014532 138.6500 221.5819 14.86487552348883 RS-44 1 44909U 19096E 26151.03977029 .00000024 00000-0 50542-4 0 9999 2 44909 82.5221 351.1021 0217386 184.2005 175.7279 12.79748556300159 SALSAT 1 46495U 20068K 26151.00675646 .00010006 00000-0 35198-3 0 9999 2 46495 97.8845 153.0293 0009884 14.0820 346.0693 15.29523137312733 CSS (TIANHE-1) 1 48274U 21035A 26151.14467191 .00023551 00000-0 28519-3 0 9998 2 48274 41.4694 65.6607 0010450 313.4229 46.5739 15.60046375290506 CUTE 1 49263U 21088D 26151.19770330 .00423034 00000-0 16728-2 0 9990 2 49263 97.4204 248.9249 0005777 260.7526 99.3091 15.85720807259857 TeikyoSat 4 1 49396U 21102B 26151.08412699 .00002656 00000-0 16958-3 0 9992 2 49396 97.3677 181.2324 0011883 0.6355 359.4887 15.09442843250149 Z-Sat 1 49399U 21102E 26151.19330953 .00006242 00000-0 30825-3 0 9993 2 49399 97.3330 187.0327 0015122 310.4947 49.4969 15.18125343250863 KOSEN 1 1 49402U 21102H 26151.10060552 .00009232 00000-0 35482-3 0 9990 2 49402 97.3195 193.5919 0011946 266.7496 93.2376 15.26575301251411 HO-113 1 50466U 21131B 26151.18565132 .00000756 00000-0 24717-3 0 9997 2 50466 98.4975 243.6678 0004946 137.3151 222.8423 14.41340343232664 SNUGLITE 2 1 52899U 22065F 26150.87991309 .00001259 00000-0 24775-3 0 9993 2 52899 98.2180 295.7437 0008756 80.9290 279.2902 14.64311361208465 UmKA 1 (RS40S) 1 57172U 23091G 26151.18318036 .00009740 00000-0 44630-3 0 9992 2 57172 97.5059 209.9474 0013157 172.1974 187.9469 15.20603274161420 CubeBel-2 (EU11S) 1 57175U 23091K 26151.16766671 .00019173 00000-0 68743-3 0 9997 2 57175 97.5062 214.2372 0010569 167.4720 192.6784 15.28713055161704 RS-38S 1 57189U 23091Z 26151.14162525 .00023228 00000-0 67518-3 0 9993 2 57189 97.5102 220.2921 0008739 128.2354 231.9677 15.35429286162072 SONATE-2 1 59112U 24043Q 26150.92611644 .00042882 00000-0 58541-3 0 9998 2 59112 97.5514 300.2829 0006083 256.8662 103.1914 15.57348280125209 GRBBeta 1 60237U 24128C 26150.89720897 .00006075 00000-0 41501-3 0 9991 2 60237 61.9908 276.9216 0043020 131.0871 229.3951 15.06492985103662 Curium One 1 60242U 24128H 26150.91388448 .00011681 00000-0 66983-3 0 9992 2 60242 61.9794 266.9415 0042198 127.4408 233.0538 15.12231174103842 ROBUSTA-3A 1 60243U 24128J 26150.60451923 .00012175 00000-0 71289-3 0 9992 2 60243 61.9874 270.4108 0043698 124.8573 235.6644 15.11395124103763 CatSat 1 60246U 24125J 26151.05121272 .00066584 00000-0 92324-3 0 9999 2 60246 97.2097 3.3547 0021408 241.8629 118.0463 15.56572434104722 HYPERVIEW-1G (RS66S) 1 61772U 24199AP 26151.14774416 .00167759 00000-0 12937-2 0 9996 2 61772 97.2911 30.0607 0003171 357.1268 2.9976 15.71444547131992 AO-123 1 61781U 24199AY 26151.15680536 .00011304 00000-0 32978-3 0 9998 2 61781 97.3021 19.9830 0014237 17.5290 342.6442 15.35407604131317 JINJUSat 1B 1 63210U 25052A 26151.17730417 .00025316 00000-0 79650-3 0 9998 2 63210 97.4030 47.9158 0004920 128.0670 232.1017 15.32926351 67499 NUSHSAT 1 1 63211U 25052B 26151.18240014 .00031601 00000-0 92274-3 0 9990 2 63211 97.4010 48.4297 0004710 127.4349 232.7324 15.35249522 67534 TEVEL2-4 1 63213U 25052D 26149.65981025 .00024157 00000-0 73793-3 0 9998 2 63213 97.3939 46.0285 0003623 137.7072 222.4450 15.33880799 67277 TEVEL2-5 1 63214U 25052E 26150.65692063 .00022929 00000-0 70316-3 0 9995 2 63214 97.3930 46.9794 0003667 137.7986 222.3539 15.33767956 67428 TEVEL2-6 1 63215U 25052F 26151.19076714 .00028483 00000-0 87241-3 0 9991 2 63215 97.3932 47.4976 0003863 137.0029 223.1516 15.33761297 67503 TEVEL2-1 1 63217U 25052H 26150.62664994 .00021973 00000-0 68572-3 0 9996 2 63217 97.3904 46.5784 0003507 146.2800 213.8666 15.33220237 67400 TEVEL2-3 1 63218U 25052J 26151.20925682 .00026899 00000-0 83618-3 0 9996 2 63218 97.3904 47.1806 0003524 147.0869 213.0593 15.33304006 67493 TEVEL2-2 1 63219U 25052K 26151.14916382 .00026902 00000-0 83748-3 0 9996 2 63219 97.3903 47.1026 0003486 147.9198 212.2257 15.33256964 67484 TEVEL2-9 1 63237U 25052AD 26151.17018926 .00025049 00000-0 82811-3 0 9997 2 63237 97.3967 46.5351 0005906 182.2368 177.8847 15.31333016 67425 TEVEL2-7 1 63238U 25052AE 26150.68505253 .00019186 00000-0 64141-3 0 9998 2 63238 97.3972 45.9743 0005936 184.7576 175.3610 15.31025705 67346 TEVEL2-8 1 63239U 25052AF 26150.69311718 .00019488 00000-0 65178-3 0 9997 2 63239 97.3969 45.9607 0005920 184.7609 175.3577 15.31009313 67341 SPIRONE 1 66657U 25274H 26150.36653340 .00003096 00000-0 29929-3 0 9996 2 66657 97.7487 79.9137 0013844 75.4824 284.7930 14.93465081 27564 K-HERO 1 66660U 25274L 26150.57706759 .00002261 00000-0 21759-3 0 9992 2 66660 97.7495 80.2695 0015636 78.3882 281.9092 14.93886381 27601 SNUGLITE-III DURI 1 66661U 25274M 26151.03421183 .00002503 00000-0 23999-3 0 9997 2 66661 97.7495 80.7403 0016316 78.0182 282.2866 14.93939333 27676 SAKHACUBE-CHOLBON 1 67290U 25313AU 26151.16278316 .00013093 00000-0 53349-3 0 9990 2 67290 97.3938 226.4136 0010400 62.1349 298.0941 15.24548456 23382 RS95S (QMR-KWT-2) 1 67291U 25313AV 26151.16592595 .00018580 00000-0 72762-3 0 9995 2 67291 97.3942 226.5589 0009835 61.7505 298.4725 15.25804494 23393 Ten-Koh2 1 68261U 25241B 26151.09529987 .00008484 00000-0 36212-3 0 9992 2 68261 51.6652 40.9597 0006629 92.2447 267.9290 15.23675833 12309 JACK-002 1 68417U 26067B 26151.10307385 .00009059 00000-0 43397-3 0 9991 2 68417 97.4558 109.9088 0002229 33.8564 326.2813 15.19156970 9351 DISCO 2 1 68431U 26067R 26150.85682852 .00009660 00000-0 46748-3 0 9994 2 68431 97.4592 109.6556 0004118 73.7298 286.4389 15.18779284 9317 HADES-SA (SpinnyONE) 1 68446U 26067AG 26150.82809027 .00023148 00000-0 11246-2 0 9993 2 68446 97.4405 109.3946 0009131 125.1064 235.1027 15.18411172 9295 PARUS-6U1 1 68456U 26067AS 26151.10916831 .00007590 00000-0 38367-3 0 9995 2 68456 97.4545 109.7390 0007399 115.7058 244.4941 15.17317357 9343 SAL-E 1 68458U 26067AU 26150.84317275 .00010232 00000-0 51341-3 0 9998 2 68458 97.4470 109.4248 0007550 123.6590 236.5365 15.17481897 9308 FSI-SAT 2 1 68792U 26088A 26150.95291448 .00006181 00000-0 41937-3 0 9995 2 68792 97.5050 300.6489 0015072 161.4684 198.7096 15.06678876 5699 OrigamiSat 2 1 68795U 26088D 26150.91593132 .00004609 00000-0 30043-3 0 9998 2 68795 97.5066 300.7031 0017255 135.7771 224.4840 15.08265419 5690 ARICA 2 1 68796U 26088E 26150.97956586 .00005913 00000-0 38432-3 0 9990 2 68796 97.5033 300.7613 0016811 134.7731 225.4869 15.08263966 5702 WASEDA-SAT-ZERO-II 1 68797U 26088F 26150.84472376 .00008425 00000-0 54354-3 0 9999 2 68797 97.5029 300.6342 0016679 135.2182 225.0397 15.08412603 5687 MANGARO-II-Piscus 1 68798U 26088G 26150.83722908 .00006128 00000-0 39363-3 0 9999 2 68798 97.5043 300.6485 0020120 138.2751 222.0017 15.08636080 5686 IO-86 1 40931U 25360.30710720 .00000000 00000-0 12800-3 0 00 2 40931 6.0006 332.5373 0012733 338.8432 8.1437 14.79075515 01 LILIUM-4 1 71922C 26067AC 26089.50133053 -.00014632 00000 0 -74472-3 0 04 2 71922 97.4497 49.1617 0004341 5.9603 355.7042 15.16896692 16